Location: Tamazert
(32.6352°N, 5.2072°W)
Time: 04:05:52
(UTC+00:00)

Okean 1-7 Rocket - Pass Details

Date: 22 May 2022
Orbit: 616 x 649 km, 82.5° (Epoch: 24 June)

Event Time Altitude Azimuth Distance (km) Brightness Sun altitude
Rises 04:34:40 0° 187° (S) 2,915 6.6 -8.9°
Reaches altitude 10° 04:36:54 10° 188° (S) 2,006 5.8 -8.5°
Maximum altitude 04:41:21 81° 276° (W) 640 3.6 -7.7°
Drops below altitude 10° 04:45:47 10° 4° (N) 1,999 6.7 -6.9°
Sets 04:48:01 0° 5° (N) 2,904 7.5 -6.5°
